DW7229 Weather Reports


time (UTC)temp
C
wind
direction
speed
KPH
gust
KPH
rain 1hr
cm
rain 24hr
cm
rain mn
cm
humidity
%
barometer
mb
20260906191028 24 0.0 0.0 0.00 0.00 0.00 44 1013.5
20260906190052 23 124 0.0 4.8 0.00 0.00 0.00 49 1013.6
20260906185017 22 85 0.0 4.8 0.00 0.00 0.00 53 1013.8
20260906184020 21 0.0 0.0 0.00 0.00 0.00 60 1013.9
20260906183024 21 0.0 0.0 0.00 0.00 0.00 59 1013.9
20260906182027 22 0.0 0.0 0.00 0.00 0.00 55 1013.8
20260906181030 23 0.0 0.0 0.00 0.00 0.00 57 1014.0
20260906180016 21 0.0 0.0 0.00 0.00 0.00 63 1014.0
20260906175019 20 0.0 0.0 0.00 0.00 0.00 66 1014.2
20260906174022 20 0.0 0.0 0.00 0.00 0.00 65 1014.2
20260906173106 21 248 0.0 1.6 0.00 0.00 0.00 62 1014.3
20260906172023 22 0.0 0.0 0.00 0.00 0.00 61 1014.4
20260906171020 21 270 0.0 3.2 0.00 0.00 0.00 62 1014.5
20260906170017 20 0.0 0.0 0.00 0.00 0.00 69 1014.7
20260906165020 20 0.0 0.0 0.00 0.00 0.00 68 1014.7
20260906164024 19 0.0 0.0 0.00 0.00 0.00 73 1014.9
20260906163027 18 0.0 0.0 0.00 0.00 0.00 74 1015.0
20260906162030 17 0.0 0.0 0.00 0.00 0.00 79 1015.1
20260906161016 17 0.0 0.0 0.00 0.00 0.00 77 1015.1
20260906160019 18 0.0 0.0 0.00 0.00 0.00 70 1015.1
20260906155022 18 0.0 0.0 0.00 0.00 0.00 69 1015.2
20260906154025 18 0.0 0.0 0.00 0.00 0.00 72 1015.3
20260906153029 18 0.0 0.0 0.00 0.00 0.00 73 1015.3
20260906152112 18 0.0 0.0 0.00 0.00 0.00 72 1015.3
20260906151017 18 0.0 0.0 0.00 0.00 0.00 74 1015.5
20260906150021 18 0.0 0.0 0.00 0.00 0.00 74 1015.5
20260906145024 18 0.0 0.0 0.00 0.00 0.00 73 1015.4
20260906144027 17 0.0 0.0 0.00 0.00 0.00 74 1015.5
20260906143031 17 270 0.0 1.6 0.00 0.00 0.00 75 1015.5
20260906142016 17 0.0 0.0 0.00 0.00 0.00 76 1015.5
20260906141059 16 180 0.0 1.6 0.00 0.00 0.00 77 1015.7
20260906140023 16 0.0 0.0 0.00 0.00 0.00 79 1015.6
20260906135026 16 0.0 0.0 0.00 0.00 0.00 81 1015.5
20260906134023 16 0.0 0.0 0.00 0.00 0.00 81 1015.5
20260906133020 16 0.0 0.0 0.00 0.00 0.00 81 1015.5
20260906132038 15 0.0 0.0 0.00 0.00 0.00 85 1015.5
20260906131015 15 0.0 0.0 0.00 0.00 0.00 87 1015.4
20260906130024 15 0.0 0.0 0.00 0.00 0.00 87 1015.4
20260906125048 15 0.0 0.0 0.00 0.00 0.00 87 1015.4
20260906124031 15 0.0 0.0 0.00 0.00 0.00 89 1015.4
20260906123016 15 0.0 0.0 0.00 0.00 0.00 92 1015.3
20260906122039 15 0.0 0.0 0.00 0.00 0.00 92 1015.3
20260906121023 15 0.0 0.0 0.00 0.00 0.00 92 1015.3
20260906120026 14 0.0 0.0 0.00 0.00 0.00 92 1015.2
20260906115029 14 0.0 0.0 0.00 0.00 0.00 92 1014.7
20260906114032 14 0.0 0.0 0.00 0.00 0.00 92 1014.7
20260906113018 13 0.0 0.0 0.00 0.00 0.00 92 1014.7
20260906112041 13 0.0 0.0 0.00 0.00 0.00 92 1014.6
20260906111024 13 0.0 0.0 0.00 0.00 0.00 92 1014.5
20260906110028 13 0.0 0.0 0.00 0.00 0.00 92 1014.5
20260906105031 13 0.0 0.0 0.00 0.00 0.00 92 1014.3
20260906104016 13 0.0 0.0 0.00 0.00 0.00 92 1014.2
20260906103040 13 0.0 0.0 0.00 0.00 0.00 92 1014.1
20260906102043 13 0.0 0.0 0.00 0.00 0.00 92 1013.9
20260906101026 13 0.0 0.0 0.00 0.00 0.00 92 1014.0
20260906100023 13 0.0 0.0 0.00 0.00 0.00 92 1014.0
20260906095015 13 0.0 0.0 0.00 0.00 0.00 92 1013.8
20260906094018 13 0.0 0.0 0.00 0.00 0.00 92 1013.7
20260906093035 13 0.0 0.0 0.00 0.00 0.00 92 1013.7
20260906092045 13 0.0 0.0 0.00 0.00 0.00 92 1013.8
20260906091028 14 0.0 0.0 0.00 0.00 0.00 92 1013.7
20260906090031 14 0.0 0.0 0.00 0.00 0.00 92 1013.8
20260906085017 14 0.0 0.0 0.00 0.00 0.00 92 1013.7
20260906084020 14 0.0 0.0 0.00 0.00 0.00 92 1013.6
20260906083023 14 0.0 0.0 0.00 0.00 0.00 92 1013.7
20260906082026 15 0.0 0.0 0.00 0.00 0.00 92 1013.7
20260906081030 15 0.0 0.0 0.00 0.00 0.00 92 1013.8
20260906080015 15 0.0 0.0 0.00 0.00 0.00 92 1013.4
20260906075038 15 0.0 0.0 0.00 0.00 0.00 92 1013.3
20260906074021 15 0.0 0.0 0.00 0.00 0.00 92 1013.3
20260906073045 15 0.0 0.0 0.00 0.00 0.00 92 1013.2
20260906072029 15 0.0 0.0 0.00 0.00 0.00 92 1013.2
20260906071032 15 0.0 0.0 0.00 0.00 0.00 92 1013.3
20260906070037 15 0.0 0.0 0.00 0.00 0.00 92 1013.2
20260906065020 15 0.0 0.0 0.00 0.00 0.00 92 1013.0
20260906064044 15 0.0 0.0 0.00 0.00 0.00 92 1013.0
20260906063027 15 0.0 0.0 0.00 0.00 0.00 92 1013.0
20260906062024 16 0.0 0.0 0.00 0.00 0.00 92 1013.1
20260906061057 16 0.0 0.0 0.00 0.00 0.00 92 1013.1
20260906060019 16 0.0 0.0 0.00 0.00 0.00 92 1012.8
20260906055036 16 0.0 0.0 0.00 0.00 0.00 92 1012.8
20260906054046 16 0.0 0.0 0.00 0.00 0.00 92 1012.9
20260906053029 16 0.0 0.0 0.00 0.00 0.00 92 1013.0
20260906052032 16 0.0 0.0 0.00 0.00 0.00 92 1013.1
20260906051017 16 0.0 0.0 0.00 0.00 0.00 92 1013.0
20260906050021 16 0.0 0.0 0.00 0.00 0.00 92 1013.1
20260906045044 16 0.0 0.0 0.00 0.00 0.00 92 1012.9
20260906044028 16 0.0 0.0 0.00 0.00 0.00 92 1012.9
20260906043030 16 0.0 0.0 0.00 0.00 0.00 91 1012.9
20260906042036 16 0.0 0.0 0.00 0.00 0.00 91 1012.9
20260906041019 16 0.0 0.0 0.00 0.00 0.00 91 1012.9
20260906040022 16 0.0 0.0 0.00 0.00 0.00 91 1012.9
20260906035026 16 0.0 0.0 0.00 0.00 0.00 89 1012.9
20260906034029 16 0.0 0.0 0.00 0.00 0.00 89 1012.9
20260906033032 16 0.0 0.0 0.00 0.00 0.00 88 1012.8
20260906032017 16 0.0 0.0 0.00 0.00 0.00 88 1012.7
20260906031021 16 0.0 0.0 0.00 0.00 0.00 88 1012.7
20260906030024 16 0.0 0.0 0.00 0.00 0.00 88 1012.8
20260906025027 16 0.0 0.0 0.00 0.00 0.00 88 1012.7
20260906024025 16 0.0 0.0 0.00 0.00 0.00 87 1012.8
20260906023016 16 0.0 0.0 0.00 0.00 0.00 87 1012.7
20260906022019 16 0.0 0.0 0.00 0.00 0.00 86 1012.6
20260906021036 16 0.0 0.0 0.00 0.00 0.00 86 1012.7
20260906020046 16 0.0 0.0 0.00 0.00 0.00 86 1012.8
20260906015029 16 0.0 0.0 0.00 0.00 0.00 85 1012.9
20260906014032 16 0.0 0.0 0.00 0.00 0.00 84 1012.8
20260906013038 16 0.0 0.0 0.00 0.00 0.00 84 1012.8
20260906012021 17 0.0 0.0 0.00 0.00 0.00 84 1012.8
20260906011044 17 0.0 0.0 0.00 0.00 0.00 84 1012.6
20260906010047 17 0.0 0.0 0.00 0.00 0.00 84 1012.5
20260906005031 17 0.0 0.0 0.00 0.00 0.00 84 1012.4
20260906004016 17 0.0 0.0 0.00 0.00 0.00 83 1012.4
20260906003019 17 0.0 0.0 0.00 0.00 0.00 82 1012.4
20260906002022 17 0.0 0.0 0.00 0.00 0.00 82 1012.3
20260906001046 17 0.0 0.0 0.00 0.00 0.00 82 1012.3
20260906000049 17 0.0 0.0 0.00 0.00 0.00 82 1012.3
20260905235032 17 0.0 0.0 0.00 0.00 0.00 81 1012.3
20260905234018 17 0.0 0.0 0.00 0.00 0.00 81 1012.2
20260905233041 17 0.0 0.0 0.00 0.00 0.00 80 1012.2
20260905232025 17 0.0 0.0 0.00 0.00 0.00 80 1012.1
20260905231027 18 0.0 0.0 0.00 0.00 0.00 80 1012.1
20260905230025 18 0.0 0.0 0.00 0.00 0.00 80 1011.8
20260905225016 18 0.0 0.0 0.00 0.00 0.00 79 1011.9
20260905224059 18 0.0 0.0 0.00 0.00 0.00 78 1011.8
20260905223016 18 0.0 0.0 0.00 0.00 0.00 78 1011.7
20260905222026 19 0.0 0.0 0.00 0.00 0.00 77 1011.7
20260905221049 20 0.0 0.0 0.00 0.00 0.00 76 1011.6
20260905220032 20 0.0 0.0 0.00 0.00 0.00 77 1011.4
20260905215018 19 0.0 0.0 0.00 0.00 0.00 80 1011.1
20260905214021 18 0.0 0.0 0.00 0.00 0.00 81 1011.1
20260905213024 18 0.0 0.0 0.00 0.00 0.00 82 1011.1
20260905212028 18 0.0 0.0 0.00 0.00 0.00 83 1011.1
20260905211031 18 0.0 0.0 0.00 0.00 0.00 82 1011.0
20260905210016 18 0.0 0.0 0.00 0.00 0.00 81 1011.1
20260905205019 18 0.0 0.0 0.00 0.00 0.00 79 1011.0
20260905204022 18 0.0 0.0 0.00 0.00 0.00 79 1011.1
20260905203026 18 0.0 0.0 0.00 0.00 0.00 78 1011.0
20260905202029 18 0.0 0.0 0.00 0.00 0.00 78 1011.0
20260905201032 18 0.0 0.0 0.00 0.00 0.00 77 1011.0
20260905200018 19 0.0 0.0 0.00 0.00 0.00 76 1011.1
20260905195021 20 0.0 0.0 0.00 0.00 0.00 71 1010.8
20260905194024 21 0.0 0.0 0.00 0.00 0.00 66 1010.6
20260905193027 21 0.0 0.0 0.00 0.00 0.00 65 1010.4
20260905192025 21 0.0 0.0 0.00 0.00 0.00 66 1010.3